Kezdőlap
METAR-TAF:

METAR-TAF

Repülőterek :

Glencoe Municipal Airport (Vernon Perschau Field)

Glencoe, Minnesota, Amerikai Egyesült Államok

földrajzi szélesség: 44-45-22N, földrajzi hosszúság: 094-04-52W, magasság: 302 m

Jelenlegi meteorológiai megfigyelések

A jelentés 16 perccel ezelõtt készült, 04:55 UTC
Szélcsend
Hőmérséklet 6°C
Páratartalom 75%
Légköri nyomás 1020 hPa
Látótávolság: 16.1 km
Derült ég

METAR: KGYL 240455Z AUTO 00000KT 10SM CLR 06/02 A3013 RMK AO2 T00580015

Idő: 00:11 (05:11 UTC)


TAF: hiányzik

Meteorológiai megfigyelések és előrejelzések több, mint 4000 repülőtéren (METAR és TAF jelentéseket).

A térképen piros és sárga pontok jelzik az elérhető meteorológiai állomásokat.

Mozgassa az egeret a pont fölött, hogy megjelenjen az állomás neve.

Azután kattintson az időjárási megfigyelések és előrejelzések megtekintéséhez.

A térkép megváltoztatása: kattintson a fekete keresztel jelölt zöld gombra ráközelítéshez, a vonallal jelölt zöld gombra távolításhoz, vagy a zöld nyilakra a szomszédos térképek eléréséhez.


METAR-TAF: